Estación de Lebu INIA
Ultimos registro cada 15 minutos 69
| N° | Estación | Fecha / Hora | Temperatura | Humedad | Lluvia | Velocidad | Dirección | Radiación | Presion |
| 69 | Lebu INIA | 10-05-2026 17:00 | 12,7 | 79,8 | 0 | 3,3 | 210 | 126 | 1097 |
| 68 | Lebu INIA | 10-05-2026 16:45 | 13,1 | 78,5 | 0 | 3 | 211 | 164 | 1095 |
| 67 | Lebu INIA | 10-05-2026 16:30 | 13,3 | 77,4 | 0 | 3,4 | 207 | 203 | 1095 |
| 66 | Lebu INIA | 10-05-2026 16:15 | 14 | 74,1 | 0 | 3,4 | 205 | 241 | 1091 |
| 65 | Lebu INIA | 10-05-2026 16:00 | 14,3 | 72,9 | 0 | 3 | 205 | 278 | 1091 |
| 64 | Lebu INIA | 10-05-2026 15:45 | 14,2 | 73,9 | 0 | 3,5 | 208 | 315 | 1091 |
| 63 | Lebu INIA | 10-05-2026 15:30 | 14,3 | 72,9 | 0 | 4 | 216 | 352 | 1086 |
| 62 | Lebu INIA | 10-05-2026 15:15 | 14,5 | 71,8 | 0 | 3,9 | 219 | 385 | 1095 |
| 61 | Lebu INIA | 10-05-2026 15:00 | 14,6 | 71,2 | 0 | 3,5 | 225 | 416 | 1089 |
| 60 | Lebu INIA | 10-05-2026 14:45 | 14,8 | 69,3 | 0 | 4 | 222 | 444 | 1097 |
| 59 | Lebu INIA | 10-05-2026 14:30 | 15,1 | 67,7 | 0 | 3,4 | 219 | 469 | 1099 |
| 58 | Lebu INIA | 10-05-2026 14:15 | 15 | 67,9 | 0 | 3,9 | 218 | 491 | 1105 |
| 57 | Lebu INIA | 10-05-2026 14:00 | 14,9 | 67,6 | 0 | 3,5 | 214 | 510 | 1094 |
| 56 | Lebu INIA | 10-05-2026 13:45 | 14,9 | 65,3 | 0 | 4,1 | 218 | 527 | 1095 |
| 55 | Lebu INIA | 10-05-2026 13:30 | 15,5 | 65,1 | 0 | 3,9 | 214 | 540 | 1108 |
| 54 | Lebu INIA | 10-05-2026 13:15 | 16,2 | 61,6 | 0 | 3,1 | 209 | 550 | 1091 |
| 53 | Lebu INIA | 10-05-2026 13:00 | 15,7 | 58,9 | 0 | 4 | 206 | 554 | 1104 |
| 52 | Lebu INIA | 10-05-2026 12:45 | 15,8 | 58,4 | 0 | 3,8 | 211 | 557 | 1106 |
| 51 | Lebu INIA | 10-05-2026 12:30 | 16,4 | 57,8 | 0 | 4,1 | 203 | 555 | 1107 |
| 50 | Lebu INIA | 10-05-2026 12:15 | 16,4 | 53,5 | 0 | 4,2 | 202 | 550 | 1100 |
| 49 | Lebu INIA | 10-05-2026 12:00 | 16,3 | 55,3 | 0 | 4,1 | 196 | 540 | 1098 |
| 48 | Lebu INIA | 10-05-2026 11:45 | 16 | 52,5 | 0 | 3,9 | 195 | 528 | 1091 |
| 47 | Lebu INIA | 10-05-2026 11:30 | 15,6 | 52 | 0 | 4,1 | 190 | 513 | 1100 |
| 46 | Lebu INIA | 10-05-2026 11:15 | 15 | 52,9 | 0 | 4 | 184 | 494 | 1101 |
| 45 | Lebu INIA | 10-05-2026 11:00 | 14,4 | 54,3 | 0 | 3,9 | 196 | 472 | 1096 |
| 44 | Lebu INIA | 10-05-2026 10:45 | 14 | 55,8 | 0 | 3,1 | 203 | 446 | 1105 |
| 43 | Lebu INIA | 10-05-2026 10:30 | 13,8 | 56,3 | 0 | 2,9 | 201 | 418 | 1094 |
| 42 | Lebu INIA | 10-05-2026 10:15 | 13,3 | 54,3 | 0 | 2,6 | 202 | 386 | 1105 |
| 41 | Lebu INIA | 10-05-2026 10:00 | 12,5 | 55,4 | 0 | 2,5 | 201 | 352 | 1103 |
| 40 | Lebu INIA | 10-05-2026 09:45 | 11,7 | 61,5 | 0 | 2,4 | 208 | 315 | 1098 |
| 39 | Lebu INIA | 10-05-2026 09:30 | 11,4 | 60,7 | 0 | 2,8 | 208 | 277 | 1101 |
| 38 | Lebu INIA | 10-05-2026 09:15 | 11 | 58,3 | 0 | 3 | 212 | 237 | 1102 |
| 37 | Lebu INIA | 10-05-2026 09:00 | 10,5 | 56,7 | 0 | 3,2 | 212 | 196 | 1108 |
| 36 | Lebu INIA | 10-05-2026 08:45 | 10,3 | 56,6 | 0 | 3,2 | 212 | 139 | 1109 |
| 35 | Lebu INIA | 10-05-2026 08:30 | 9,8 | 56 | 0 | 2,9 | 207 | 58 | 1107 |
| 34 | Lebu INIA | 10-05-2026 08:15 | 9,7 | 55,6 | 0 | 3 | 213 | 20 | 1108 |
| 33 | Lebu INIA | 10-05-2026 08:00 | 9,6 | 52,8 | 0 | 2,8 | 202 | 8 | 1109 |
| 32 | Lebu INIA | 10-05-2026 07:45 | 9,2 | 53,3 | 0 | 2,7 | 205 | 3 | 1106 |
| 31 | Lebu INIA | 10-05-2026 07:30 | 9,1 | 54,9 | 0 | 2,6 | 211 | 0 | 1106 |
| 30 | Lebu INIA | 10-05-2026 07:15 | 9,1 | 54 | 0 | 2,7 | 215 | 0 | 1108 |
| 29 | Lebu INIA | 10-05-2026 07:00 | 9 | 55,9 | 0 | 2,7 | 214 | 0 | 1108 |
| 28 | Lebu INIA | 10-05-2026 06:45 | 9 | 56,2 | 0 | 2,8 | 213 | 0 | 1106 |
| 27 | Lebu INIA | 10-05-2026 06:30 | 9 | 56 | 0 | 3,1 | 217 | 0 | 1107 |
| 26 | Lebu INIA | 10-05-2026 06:15 | 9,1 | 56,4 | 0 | 3,5 | 211 | 0 | 1105 |
| 25 | Lebu INIA | 10-05-2026 06:00 | 8,8 | 56,2 | 0 | 3,4 | 213 | 0 | 1105 |
| 24 | Lebu INIA | 10-05-2026 05:45 | 8,7 | 58,3 | 0 | 3,1 | 211 | 0 | 1106 |
| 23 | Lebu INIA | 10-05-2026 05:30 | 8,7 | 54,9 | 0 | 3,1 | 208 | 0 | 1106 |
| 22 | Lebu INIA | 10-05-2026 05:15 | 8,7 | 57,1 | 0 | 2,7 | 205 | 0 | 1107 |
| 21 | Lebu INIA | 10-05-2026 05:00 | 9,4 | 55,7 | 0 | 2,9 | 212 | 0 | 1108 |
| 20 | Lebu INIA | 10-05-2026 04:45 | 10,9 | 47,5 | 0 | 3 | 201 | 0 | 1107 |
| 19 | Lebu INIA | 10-05-2026 04:30 | 10,6 | 41,9 | 0 | 2,2 | 196 | 0 | 1111 |
| 18 | Lebu INIA | 10-05-2026 04:15 | 10 | 43,9 | 0 | 1,6 | 197 | 0 | 1110 |
| 17 | Lebu INIA | 10-05-2026 04:00 | 9,8 | 47,6 | 0 | 1,9 | 215 | 0 | 1111 |
| 16 | Lebu INIA | 10-05-2026 03:45 | 9,2 | 50,5 | 0 | 0,8 | 214 | 0 | 1110 |
| 15 | Lebu INIA | 10-05-2026 03:30 | 9,1 | 53,6 | 0 | 0,2 | 238 | 0 | 1110 |
| 14 | Lebu INIA | 10-05-2026 03:15 | 9,2 | 52,6 | 0 | 1,9 | 223 | 0 | 1109 |
| 13 | Lebu INIA | 10-05-2026 03:00 | 8,9 | 54,8 | 0 | 2,5 | 216 | 0 | 1113 |
| 12 | Lebu INIA | 10-05-2026 02:45 | 8,5 | 59,1 | 0 | 2,2 | 204 | 0 | 1114 |
| 11 | Lebu INIA | 10-05-2026 02:30 | 8,6 | 61,3 | 0 | 2,3 | 204 | 0 | 1112 |
| 10 | Lebu INIA | 10-05-2026 02:15 | 8,7 | 61,2 | 0 | 2,8 | 209 | 0 | 1113 |
| 9 | Lebu INIA | 10-05-2026 02:00 | 8,6 | 62,4 | 0 | 2,8 | 214 | 0 | 1113 |
| 8 | Lebu INIA | 10-05-2026 01:45 | 8,6 | 62,8 | 0 | 2,6 | 210 | 0 | 1110 |
| 7 | Lebu INIA | 10-05-2026 01:30 | 8,5 | 62,9 | 0 | 2 | 208 | 0 | 1112 |
| 6 | Lebu INIA | 10-05-2026 01:15 | 8,5 | 66,6 | 0 | 1,4 | 216 | 0 | 1115 |
| 5 | Lebu INIA | 10-05-2026 01:00 | 8,5 | 67,8 | 0 | 1,2 | 228 | 0 | 0 |
| 4 | Lebu INIA | 10-05-2026 00:45 | 8,5 | 70,7 | 0 | 2 | 211 | 0 | 0 |
| 3 | Lebu INIA | 10-05-2026 00:30 | 8,6 | 72 | 0 | 2,4 | 208 | 0 | 1115 |
| 2 | Lebu INIA | 10-05-2026 00:15 | 8,8 | 71,3 | 0 | 2,9 | 206 | 0 | 1114 |
| 1 | Lebu INIA | 10-05-2026 00:00 | 8,9 | 71,7 | 0 | 2,9 | 206 | 0 | 1116 |